Location: *
(10.5081°N, 66.9194°W)
Time: 03:49:56
(UTC+00:00)

Atlas 2A Centaur Rocket - Pass Details

Date: 30 March 2020
Orbit: 283 x 19427 km, 27.0° (Epoch: 23 May)

Event Time Altitude Azimuth Distance (km) Brightness Sun altitude
Rises 23:13:10 0° 289° (WNW) 3,601 7.9 -9.3°
Reaches altitude 10° 23:16:55 10° 277° (W) 1,710 6.0 -10.2°
Maximum altitude 23:19:38 27° 215° (SW) 671 2.6 -10.9°
Drops below altitude 10° 23:21:25 10° 151° (SSE) 1,104 3.0 -11.3°
Enters shadow 23:21:25 10° 151° (SSE) 1,105 3.0 -11.3°
